Regional Weather Roundup
Issued by NWS

Home | Current Version | Previous Version | Text Only | Print | Product List | Glossary On
Versions: 1 2 3 4 5 6 7 8 9 10 11 12 13 14 15 16 17 18 19 20 21 22 23 24 25 26 27 28 29 30 31 32 33 34 35 36 37 38 39 40 41 42 43 44 45 46 47 48 49 50
000
ASUS43 KDTX 260901
RWRMI
MICHIGAN HOURLY REGIONAL WEATHER ROUNDUP
NATIONAL WEATHER SERVICE DETROIT/PONTIAC MI
500 AM EDT SUN APR 26 2015

NOTE: "FAIR" INDICATES FEW OR NO CLOUDS BELOW 12,000 FEET WITH NO
SIGNIFICANT WEATHER AND/OR OBSTRUCTION TO VISIBILITY.

MIZ047>049-052>055-059>063-066>070-074>076-081>083-261000-
SOUTHEAST LOWER MICHIGAN

CITY           SKY/WX    TMP DP  RH WIND       PRES   REMARKS
ADRIAN         CLEAR     36  26  67 NE10      29.85R WCI  28
ALMA           CLEAR     29  26  88 N3        29.90S
ANN ARBOR      CLEAR     36  25  64 N7        29.86R WCI  30
BAD AXE        CLEAR     33  27  77 N3        29.88R
CARO           CLEAR     28  24  88 CALM      29.88S
DETROIT CITY   CLEAR     34  26  72 N6        29.86R WCI  29
DETROIT        CLEAR     38  26  62 N8        29.86R WCI  32
FLINT          CLEAR     32  23  69 NW3       29.89R
GROSSE ILE     CLEAR     39  28  65 N9        29.84R WCI  33
HILLSDALE      CLEAR     36  25  63 N5        29.85R WCI  32
HOWELL         CLEAR     32  24  71 CALM      29.87R

CITY           SKY/WX    TMP DP  RH WIND       PRES   REMARKS
JACKSON        CLEAR     34  24  67 N5        29.87R WCI  30
LAMBERTVILLE   CLEAR     37  28  70 NE7       29.84R WCI  32
LANSING        CLEAR     32  25  75 CALM      29.89S
LAPEER         FAIR      29  24  81 CALM      29.87S
MASON          CLEAR     32  23  69 CALM      29.88R
MONROE         CLEAR     37  27  65 N7        29.83R WCI  32
PONTIAC        CLEAR     33  24  69 N8        29.85R WCI  26
PORT HOPE        N/A     39  32  76 N14       29.86R WCI  31
PORT HURON     CLEAR     34  30  86 NW5       29.86S WCI  30
TRI CITIES     CLEAR     34  24  67 NW8       29.90S WCI  27
MIDLAND        FAIR      29  26  88 NW3       29.89F
TROY           CLEAR     37  27  66 N6        29.87R WCI  32
SAGINAW HB     CLEAR     32  28  86 NW5       29.89S WCI  27
$$
MIZ043>046-050>051-056>058-064>065-071>073-077>080-261000-
SOUTHWEST LOWER MICHIGAN

CITY           SKY/WX    TMP DP  RH WIND       PRES   REMARKS
BATTLE CREEK   CLEAR     34  25  69 NE5       29.89R WCI  30
BENTON HARBOR  CLEAR     36  26  67 NE5       29.90R WCI  32
BIG RAPIDS     CLEAR     33  25  70 N3        29.92R
COLDWATER      CLEAR     34  27  74 N6        29.86R WCI  29
FREMONT        FAIR      33  22  65 CALM      29.93R
HOLLAND        CLEAR     37  26  64 N3        29.93R
GRAND RAPIDS   CLEAR     35  24  64 CALM      29.91R
IONIA          FAIR      33  25  72 N6        29.89S WCI  28
KALAMAZOO      CLEAR     32  24  72 N6        29.89R WCI  26
LUDINGTON      CLEAR     36  24  61 CALM      29.95R
MARSHALL       CLEAR     33  25  71 NW3       29.88R
MOUNT PLEASANT CLEAR     32  27  80 N3        29.90S
MUSKEGON       CLEAR     38  24  57 NE3       29.94R
SOUTH HAVEN    CLEAR     36  26  65 NE5       29.91R WCI  32
$$
MIZ016>042-261000-
NORTHERN LOWER MICHIGAN

CITY           SKY/WX    TMP DP  RH WIND       PRES   REMARKS
BEAVER ISLAND  CLEAR     31  26  82 CALM      29.98R
BELLAIRE       CLEAR     28  25  87 CALM      29.96S
CADILLAC       CLEAR     32  25  73 N6        29.92R WCI  27
CHARLEVOIX     CLEAR     33  31  90 CALM      29.99R
FRANKFORT      CLEAR     39  23  53 NE8       29.95F WCI  33
GAYLORD        CLEAR     30  22  72 CALM      29.92S
GRAYLING       CLEAR     22  20  89 CALM      29.93R
HARBOR SPRINGS CLEAR     32  24  71 CALM      29.95S
HOUGHTON LAKE  CLEAR     34  22  61 N8        29.92R WCI  27
MANISTEE       CLEAR     36  21  55 CALM      29.96R
OSCODA         CLEAR     33  25  73 N7        29.90R WCI  27
PELLSTON       CLEAR     24  22  91 NW5       29.96S WCI  18
ROGERS CITY    CLEAR     32  29  87 W3        29.96R
TRAVERSE CITY  CLEAR     36  27  69 N5        29.95R WCI  32
$$
MIZ007>008-015-261000-
EASTERN UPPER MICHIGAN

CITY           SKY/WX    TMP DP  RH WIND       PRES   REMARKS
KINROSS        CLEAR     30  28  93 N5        29.96R WCI  25
MACKINAC ISLAN CLEAR     32  27  81 N6        29.96R WCI  26
NEWBERRY       CLEAR     31  27  88 N5        29.97S WCI  26
S. S. MARIE    CLEAR     30  25  81 NW5       29.95S WCI  25
$$
MIZ004>006-011>014-085-261000-
CENTRAL UPPER MICHIGAN

CITY           SKY/WX    TMP DP  RH WIND       PRES   REMARKS
MANISTIQUE     CLEAR     30  26  84 N7        29.98S WCI  23
ESCANABA       CLEAR     34  19  55 N6        30.00S WCI  29
MENOMINEE      CLEAR     30  19  64 NW3       30.01R
SAWYER-GWINN   CLEAR     32  19  58 N9        30.01R WCI  24
$$
MIZ001>003-009>011-084-261000-
WESTERN UPPER MICHIGAN

CITY           SKY/WX    TMP DP  RH WIND       PRES   REMARKS
IRON MOUNTAIN  CLEAR     27  19  72 CALM      30.00S
HOUGHTON       CLEAR     33  21  61 NW10      30.04S WCI  25
COPPER HARBOR    N/A     34  25  69 N5        30.06R WCI  30
IRONWOOD       CLEAR     25  23  93 CALM      30.04F
$$

ABBREVIATIONS USED IN REMARKS
   TC - TEMPERATURE IN CELSIUS
  WCI - WIND CHILL INDEX
   HX - HEAT INDEX
  VSB - VISIBILITY



USA.gov is the U.S. government's official web portal to all federal, state and local government web resources and services.